GW0719 Weather Reports


Display with metric or nautical units.
time (UTC)temp
F
wind
direction
speed
MPH
gust
MPH
rain 1hr
in
rain 24hr
in
rain mn
in
humidity
%
barometer
mb
20260503004015 65 17 0.0 0.0 0.00 0.00 0.00 10 1017.5
20260503003511 64 35 0.0 0.0 0.00 0.00 0.00 10 1017.7
20260503003008 64 322 0.0 0.0 0.00 0.00 0.00 10 1017.5
20260503002505 66 39 0.0 0.0 0.00 0.00 0.00 10 1017.5
20260503002001 65 52 0.0 0.0 0.00 0.00 0.00 10 1017.6
20260503001458 64 49 0.0 0.0 0.00 0.00 0.00 10 1017.8
20260503000955 64 153 0.0 0.0 0.00 0.00 0.00 10 1017.6
20260503000453 65 212 0.0 0.0 0.00 0.00 0.00 10 1017.6
20260502235950 65 301 0.0 0.0 0.00 0.00 0.00 10 1017.9
20260502235447 64 359 0.0 0.0 0.00 0.00 0.00 10 1017.8
20260502234944 64 327 0.0 0.0 0.00 0.00 0.00 10 1017.7
20260502234440 66 0 0.0 1.0 0.00 0.00 0.00 10 1017.9
20260502233938 67 316 0.0 0.0 0.00 0.00 0.00 10 1017.9
20260502233433 66 76 0.0 0.0 0.00 0.00 0.00 10 1017.9
20260502232930 65 241 0.0 0.0 0.00 0.00 0.00 10 1017.9
20260502232426 64 71 0.0 0.0 0.00 0.00 0.00 10 1018.1
20260502231923 64 70 0.0 0.0 0.00 0.00 0.00 10 1018.1
20260502231420 64 45 0.0 0.0 0.00 0.00 0.00 10 1018.3
20260502230918 65 51 0.0 0.0 0.00 0.00 0.00 10 1018.5
20260502230411 65 47 0.0 0.0 0.00 0.00 0.00 10 1018.3
20260502225909 64 62 0.0 0.0 0.00 0.00 0.00 10 1018.5
20260502225404 65 64 0.0 0.0 0.00 0.00 0.00 10 1018.4
20260502224902 64 27 0.0 0.0 0.00 0.00 0.00 10 1018.6
20260502224357 63 352 0.0 0.0 0.00 0.00 0.00 10 1018.8
20260502223855 65 319 0.0 0.0 0.00 0.00 0.00 10 1018.5
20260502223353 64 75 0.0 0.0 0.00 0.00 0.00 10 1018.7
20260502222850 64 120 0.0 1.0 0.00 0.00 0.00 10 1019.0
20260502222348 64 30 0.0 1.0 0.00 0.00 0.00 10 1018.8
20260502221843 64 34 0.0 1.0 0.00 0.00 0.00 10 1019.1
20260502221340 64 61 0.0 1.0 0.00 0.00 0.00 10 1019.0
20260502220837 63 28 0.0 1.0 0.00 0.00 0.00 10 1019.2
20260502220333 63 46 0.0 1.0 0.00 0.00 0.00 10 1019.1
20260502215829 63 39 0.0 2.0 0.00 0.00 0.00 10 1019.0
20260502215327 63 39 0.0 0.0 0.00 0.00 0.00 10 1019.2
20260502214823 63 3 0.0 0.0 0.00 0.00 0.00 10 1019.5
20260502214320 63 15 0.0 0.0 0.00 0.00 0.00 10 1019.4
20260502213812 64 6 0.0 2.0 0.00 0.00 0.00 10 1019.5
20260502213309 64 20 0.0 0.0 0.00 0.00 0.00 10 1019.6
20260502212808 64 40 0.0 0.0 0.00 0.00 0.00 10 1019.6
20260502212306 63 41 0.0 0.0 0.00 0.00 0.00 10 1019.9
20260502211803 64 3 0.0 0.0 0.00 0.00 0.00 10 1019.6
20260502211258 62 38 0.0 0.0 0.00 0.00 0.00 10 1019.8
20260502210756 63 67 0.0 7.0 0.00 0.00 0.00 10 1019.4
20260502210253 63 39 0.0 0.0 0.00 0.00 0.00 10 1019.8
20260502205750 63 19 0.0 0.0 0.00 0.00 0.00 10 1019.9
20260502205246 62 53 0.0 0.0 0.00 0.00 0.00 10 1019.9
20260502204744 63 74 0.0 0.0 0.00 0.00 0.00 10 1020.1
20260502204241 63 125 0.0 0.0 0.00 0.00 0.00 10 1020.0
20260502203738 64 21 0.0 0.0 0.00 0.00 0.00 10 1020.2
20260502203236 63 75 0.0 0.0 0.00 0.00 0.00 10 1020.3
20260502202730 63 46 0.0 0.0 0.00 0.00 0.00 10 1020.3
20260502202229 63 119 0.0 0.0 0.00 0.00 0.00 10 1020.3
20260502201726 62 48 0.0 0.0 0.00 0.00 0.00 10 1020.3
20260502201222 61 55 0.0 0.0 0.00 0.00 0.00 10 1020.6
20260502200718 61 22 0.0 0.0 0.00 0.00 0.00 10 1020.6
20260502200215 61 36 0.0 0.0 0.00 0.00 0.00 10 1020.7
20260502195713 60 47 0.0 0.0 0.00 0.00 0.00 10 1020.8
20260502195209 61 80 0.0 0.0 0.00 0.00 0.00 10 1020.9
20260502194706 61 357 0.0 0.0 0.00 0.00 0.00 10 1021.0
20260502194203 60 51 0.0 0.0 0.00 0.00 0.00 10 1020.8
20260502193659 60 40 0.0 0.0 0.00 0.00 0.00 10 1020.8
20260502193156 60 57 0.0 0.0 0.00 0.00 0.00 10 1021.0
20260502192651 59 50 0.0 0.0 0.00 0.00 0.00 10 1021.0
20260502192149 60 41 0.0 0.0 0.00 0.00 0.00 10 1021.1
20260502191645 59 38 0.0 0.0 0.00 0.00 0.00 10 1021.4
20260502191143 59 32 0.0 0.0 0.00 0.00 0.00 10 1021.6
20260502190640 59 25 0.0 0.0 0.00 0.00 0.00 10 1021.4
20260502190138 59 51 0.0 0.0 0.00 0.00 0.00 10 1021.3
20260502185632 59 59 0.0 0.0 0.00 0.00 0.00 10 1021.3
20260502185130 59 44 0.0 0.0 0.00 0.00 0.00 10 1021.2
20260502184626 59 47 0.0 0.0 0.00 0.00 0.00 10 1021.4
20260502184121 59 42 0.0 0.0 0.00 0.00 0.00 10 1021.6
20260502183618 59 72 0.0 0.0 0.00 0.00 0.00 10 1021.6
20260502183114 59 41 0.0 0.0 0.00 0.00 0.00 10 1021.8
20260502182609 59 44 0.0 0.0 0.00 0.00 0.00 10 1021.6
20260502182105 59 64 0.0 0.0 0.00 0.00 0.00 10 1021.6
20260502181603 59 48 0.0 0.0 0.00 0.00 0.00 10 1021.3
20260502181102 59 57 0.0 0.0 0.00 0.00 0.00 10 1021.6
20260502180558 59 46 0.0 0.0 0.00 0.00 0.00 10 1021.9
20260502170518 60 35 0.0 2.0 0.00 0.00 0.00 10 1021.1
20260502164002 59 56 0.0 0.0 0.00 0.00 0.00 10 1021.6
20260502163457 59 46 0.0 1.0 0.00 0.00 0.00 10 1021.6
20260502162954 59 33 0.0 0.0 0.00 0.00 0.00 10 1021.7
20260502162451 59 39 0.0 0.0 0.00 0.00 0.00 10 1021.3
20260502161948 59 19 0.0 1.0 0.00 0.00 0.00 10 1021.2
20260502161445 59 5 0.0 2.0 0.00 0.00 0.00 10 1021.2
20260502160943 59 29 0.0 0.0 0.00 0.00 0.00 10 1021.8
20260502160441 58 43 0.0 1.0 0.00 0.00 0.00 10 1021.3
20260502151924 57 36 0.0 0.0 0.00 0.00 0.00 10 1021.0
20260502151420 57 59 0.0 0.0 0.00 0.00 0.00 10 1021.3
20260502150918 58 22 0.0 0.0 0.00 0.00 0.00 10 1021.2
20260502150414 58 35 0.0 0.0 0.00 0.00 0.00 10 1021.3
20260502130300 48 50 0.0 0.0 0.00 0.00 0.00 10 1021.0
20260502123746 44 22 0.0 0.0 0.00 0.00 0.00 10 1020.7
20260502123243 44 28 0.0 0.0 0.00 0.00 0.00 10 1020.7
20260502122739 44 28 0.0 0.0 0.00 0.00 0.00 10 1020.6
20260502122235 43 19 0.0 0.0 0.00 0.00 0.00 10 1020.7
20260502121734 42 26 0.0 0.0 0.00 0.00 0.00 10 1020.6
20260502121231 41 38 0.0 0.0 0.00 0.00 0.00 10 1020.2
20260502120728 41 42 0.0 0.0 0.00 0.00 0.00 10 1020.3
20260502120224 42 22 0.0 0.0 0.00 0.00 0.00 10 1020.2
20260502115722 43 44 0.0 0.0 0.00 0.00 0.00 10 1020.1
20260502115219 44 39 0.0 0.0 0.00 0.00 0.00 10 1020.1
20260502114715 44 49 0.0 0.0 0.00 0.00 0.00 10 1020.2
20260502114212 44 42 0.0 0.0 0.00 0.00 0.00 10 1020.1
20260502113709 45 44 0.0 0.0 0.00 0.00 0.00 10 1020.2
20260502113207 45 46 0.0 0.0 0.00 0.00 0.00 10 1020.1
20260502112705 44 35 0.0 0.0 0.00 0.00 0.00 10 1020.2
20260502112203 44 32 0.0 0.0 0.00 0.00 0.00 10 1019.9
20260502111659 44 36 0.0 0.0 0.00 0.00 0.00 10 1020.0
20260502111157 45 24 0.0 0.0 0.00 0.00 0.00 10 1020.0
20260502110655 46 44 0.0 0.0 0.00 0.00 0.00 10 1019.8
20260502110152 46 45 0.0 0.0 0.00 0.00 0.00 10 1019.7
20260502105649 45 33 0.0 0.0 0.00 0.00 0.00 10 1019.4
20260502105146 46 41 0.0 0.0 0.00 0.00 0.00 10 1019.1
20260502104643 46 36 0.0 0.0 0.00 0.00 0.00 10 1018.8
20260502104141 47 39 0.0 0.0 0.00 0.00 0.00 10 1018.9
20260502103638 47 40 0.0 0.0 0.00 0.00 0.00 10 1019.1
20260502103136 47 31 0.0 0.0 0.00 0.00 0.00 10 1019.0
20260502102632 47 32 0.0 0.0 0.00 0.00 0.00 10 1018.8
20260502102129 48 43 0.0 0.0 0.00 0.00 0.00 10 1018.7
20260502101627 48 36 0.0 0.0 0.00 0.00 0.00 10 1018.6
20260502101125 46 33 0.0 0.0 0.00 0.00 0.00 10 1018.5
20260502100624 46 36 0.0 2.0 0.00 0.00 0.00 10 1018.6
20260502100121 46 46 0.0 0.0 0.00 0.00 0.00 10 1018.4
20260502091055 50 41 0.0 2.0 0.00 0.00 0.00 10 1017.8
20260502090552 51 46 0.0 0.0 0.00 0.00 0.00 10 1017.8
20260502071446 47 61 0.0 0.0 0.00 0.00 0.00 10 1017.0
20260502070944 47 13 0.0 0.0 0.00 0.00 0.00 10 1017.2
20260502070442 48 350 0.0 0.0 0.00 0.00 0.00 10 1017.0
20260502065941 48 341 0.0 0.0 0.00 0.00 0.00 10 1017.0
20260502065439 49 2 0.0 0.0 0.00 0.00 0.00 10 1016.9
20260502064937 50 353 0.0 0.0 0.00 0.00 0.00 10 1016.8
20260502064434 50 339 0.0 0.0 0.00 0.00 0.00 10 1016.9
20260502063931 48 358 0.0 0.0 0.00 0.00 0.00 10 1017.2
20260502063429 48 3 0.0 0.0 0.00 0.00 0.00 10 1016.7
20260502062926 48 31 0.0 0.0 0.00 0.00 0.00 10 1016.7
20260502062423 48 24 0.0 0.0 0.00 0.00 0.00 10 1016.9
20260502061922 48 24 0.0 0.0 0.00 0.00 0.00 10 1017.0
20260502061420 47 30 0.0 0.0 0.00 0.00 0.00 10 1016.7
20260502060915 46 35 0.0 0.0 0.00 0.00 0.00 10 1016.9
20260502060410 47 42 0.0 0.0 0.00 0.00 0.00 10 1016.7
20260502055908 47 12 0.0 0.0 0.00 0.00 0.00 10 1016.7
20260502055406 48 25 0.0 0.0 0.00 0.00 0.00 10 1016.7
20260502054900 50 25 0.0 0.0 0.00 0.00 0.00 10 1016.9
20260502054357 51 5 0.0 0.0 0.00 0.00 0.00 10 1016.9
20260502053854 51 39 0.0 0.0 0.00 0.00 0.00 10 1016.7
20260502053351 49 39 0.0 0.0 0.00 0.00 0.00 10 1016.8
20260502052849 50 57 0.0 0.0 0.00 0.00 0.00 10 1016.9
20260502052347 50 45 0.0 0.0 0.00 0.00 0.00 10 1016.9
20260502051844 48 21 0.0 0.0 0.00 0.00 0.00 10 1016.7
20260502051343 48 27 0.0 0.0 0.00 0.00 0.00 10 1016.8
20260502050839 48 32 0.0 0.0 0.00 0.00 0.00 10 1016.8
20260502050336 48 335 0.0 0.0 0.00 0.00 0.00 10 1016.6
20260502045833 48 345 0.0 0.0 0.00 0.00 0.00 10 1016.6
20260502045329 48 312 0.0 0.0 0.00 0.00 0.00 10 1016.8
20260502044827 49 326 0.0 0.0 0.00 0.00 0.00 10 1016.7
20260502044322 49 315 0.0 0.0 0.00 0.00 0.00 10 1016.9
20260502043820 48 302 0.0 0.0 0.00 0.00 0.00 10 1016.7
20260502043317 50 356 0.0 0.0 0.00 0.00 0.00 10 1016.7
20260502042817 51 350 0.0 0.0 0.00 0.00 0.00 10 1016.8
20260502042314 53 39 0.0 0.0 0.00 0.00 0.00 10 1016.5
20260502041811 54 49 0.0 0.0 0.00 0.00 0.00 10 1016.5
20260502041309 54 47 0.0 0.0 0.00 0.00 0.00 10 1016.6
20260502040806 53 35 0.0 0.0 0.00 0.00 0.00 10 1016.6
20260502040303 51 42 0.0 0.0 0.00 0.00 0.00 10 1016.7
20260502035759 52 22 0.0 0.0 0.00 0.00 0.00 10 1016.2
20260502035255 53 34 0.0 0.0 0.00 0.00 0.00 10 1016.5
20260502034753 55 49 0.0 0.0 0.00 0.00 0.00 10 1016.4
20260502034251 57 28 0.0 0.0 0.00 0.00 0.00 10 1016.5
20260502033749 59 25 0.0 0.0 0.00 0.00 0.00 10 1016.7
20260502033246 59 41 0.0 0.0 0.00 0.00 0.00 10 1016.1
20260502032743 58 36 0.0 0.0 0.00 0.00 0.00 10 1016.2
20260502032239 60 60 0.0 0.0 0.00 0.00 0.00 10 1016.3
20260502031737 60 43 0.0 0.0 0.00 0.00 0.00 10 1016.1
20260502031235 62 76 0.0 0.0 0.00 0.00 0.00 10 1015.9
20260502030733 59 38 0.0 0.0 0.00 0.00 0.00 10 1016.1
20260502030231 59 43 0.0 0.0 0.00 0.00 0.00 10 1016.1
20260502025728 61 19 0.0 0.0 0.00 0.00 0.00 10 1015.9
20260502025226 61 240 0.0 0.0 0.00 0.00 0.00 10 1015.8
20260502024723 61 308 0.0 0.0 0.00 0.00 0.00 10 1015.8
20260502024221 60 68 0.0 0.0 0.00 0.00 0.00 10 1015.5
20260502023719 65 56 0.0 0.0 0.00 0.00 0.00 10 1015.8
20260502023216 65 26 0.0 0.0 0.00 0.00 0.00 10 1015.8
20260502022714 65 42 0.0 0.0 0.00 0.00 0.00 10 1015.9
20260502022210 65 51 0.0 0.0 0.00 0.00 0.00 10 1015.6
20260502021707 64 11 0.0 0.0 0.00 0.00 0.00 10 1015.9
20260502021204 65 37 0.0 0.0 0.00 0.00 0.00 10 1015.6
20260502020701 65 29 0.0 0.0 0.00 0.00 0.00 10 1015.7
20260502020158 66 28 0.0 0.0 0.00 0.00 0.00 10 1015.7
20260502015656 66 51 0.0 0.0 0.00 0.00 0.00 10 1015.6
20260502015152 68 61 0.0 0.0 0.00 0.00 0.00 10 1015.5
20260502014650 68 61 0.0 0.0 0.00 0.00 0.00 10 1015.4
20260502014147 69 62 0.0 0.0 0.00 0.00 0.00 10 1015.5
20260502013643 70 61 0.0 0.0 0.00 0.00 0.00 10 1015.3
20260502013138 71 60 0.0 0.0 0.00 0.00 0.00 10 1015.5
20260502012636 71 58 0.0 0.0 0.00 0.00 0.00 10 1015.3
20260502012134 72 53 0.0 0.0 0.00 0.00 0.00 10 1015.3
20260502011630 73 53 0.0 0.0 0.00 0.00 0.00 10 1015.6
20260502011126 72 50 0.0 0.0 0.00 0.00 0.00 10 1015.6
20260502010624 72 19 0.0 0.0 0.00 0.00 0.00 10 1015.6
20260502010120 72 36 0.0 0.0 0.00 0.00 0.00 10 1015.7
20260502005618 72 343 0.0 0.0 0.00 0.00 0.00 10 1015.7
20260502005115 73 37 0.0 0.0 0.00 0.00 0.00 10 1015.8
20260502004611 73 46 0.0 0.0 0.00 0.00 0.00 10 1015.8
20260502004108 75 337 0.0 0.0 0.00 0.00 0.00 10 1015.8